Location: Bellerive
(46.9237°N, 7.0223°E)
Time: 13:11:58
(UTC+00:00)

Cosmos 1703 - Pass Details

Date: 09 April 2020
Orbit: 524 x 540 km, 82.5° (Epoch: 27 May)

Event Time Altitude Azimuth Distance (km) Brightness Sun altitude
Rises 19:00:20 0° 350° (N) 2,706 7.3 -8.6°
Reaches altitude 10° 19:02:30 10° 350° (N) 1,811 6.4 -8.9°
Maximum altitude 19:06:29 87° 263° (W) 548 3.3 -9.6°
Drops below altitude 10° 19:10:27 10° 173° (S) 1,798 5.7 -10.2°
Sets 19:12:36 0° 173° (S) 2,685 6.5 -10.5°
